Regional Weather Roundup
Issued by NWS

Home | Current Version | Previous Version | Graphics & Text | Print | Product List | Glossary On
Versions: 1 2 3 4 5 6 7 8 9 10 11 12 13 14 15 16 17 18 19 20 21 22 23 24 25 26 27 28 29 30 31 32 33 34 35 36 37 38 39 40 41 42 43 44 45 46 47 48 49 50
229
ASUS45 KPSR 300810
RWRAZ

ARIZONA HOURLY REGIONAL WEATHER ROUNDUP
NATIONAL WEATHER SERVICE PHOENIX AZ
100 AM MST SUN APR 30 2017

NOTE: FAIR INDICATES FEW OR NO CLOUDS BELOW 12,000 FEET WITH NO
SIGNIFICANT WEATHER AND/OR OBSTRUCTIONS TO VISIBILITY.

AZZ001>003-036-300900-
NORTHWEST ARIZONA

CITY           SKY/WX    TMP DP  RH WIND       PRES   REMARKS
BULLHEAD CITY  CLEAR     68  14  12 NE5       30.05R
KINGMAN        CLEAR     42  18  37 E6        30.15R
$$

AZZ004>008-015-016-018-300900-
NORTH CENTRAL ARIZONA

CITY           SKY/WX    TMP DP  RH WIND       PRES   REMARKS
GRAND CANYON   CLEAR     27  12  53 NE3       30.21R
WILLIAMS       CLEAR     28  14  54 SE5       30.21R WCI  23
PRESCOTT       CLEAR     45  16  31 W7        30.18R
FLAGSTAFF      CLEAR     32  12  43 NE8       30.19S WCI  25
PAYSON         CLEAR     46  12  25 CALM      30.18R
PAGE           CLEAR     52  20  28 NW8       30.15R
$$

AZZ009>014-017-300900-
NORTHEAST ARIZONA

CITY           SKY/WX    TMP DP  RH WIND       PRES   REMARKS
WINSLOW        CLEAR     38  14  37 W12       30.16R WCI  30
SAINT JOHNS    CLEAR     34  29  82 CALM      30.13R
WINDOW ROCK    CLEAR     33  20  58 N6        30.11S WCI  28
SHOW LOW       CLEAR     28  14  54 S5        30.18R WCI  23
$$

AZZ540-542>544-546-548-300900-
GREATER PHOENIX AREA

CITY           SKY/WX    TMP DP  RH WIND       PRES   REMARKS
PHOENIX        CLEAR     66  25  21 E7        29.98R
BUCKEYE        CLEAR     64  12  13 N10       30.01R
LUKE AFB       CLEAR     63  24  22 NW7       30.00R
DEER VALLEY    CLEAR     64  19  17 NE9       30.01R
SCOTTSDALE     CLEAR     64  23  21 N3        30.02R
MESA-GATEWAY   CLEAR     59  21  23 E9        30.02R
$$

AZZ539-553-300900-
SOUTHWEST MARICOPA COUNTY AND PINAL COUNTY

CITY           SKY/WX    TMP DP  RH WIND       PRES   REMARKS
CASA GRANDE    CLEAR     61  20  20 E3        30.01R
GILA BEND      FAIR      63  15  15 SW8       29.99R
$$

AZZ503-504-507>509-300900-
SOUTHEAST ARIZONA

CITY           SKY/WX    TMP DP  RH WIND       PRES   REMARKS
TUCSON         CLEAR     55  14  19 SE7       30.10R
DAVIS-MONTHAN  CLEAR     54  15  21 SE7       30.08S
NOGALES        CLEAR     45  13  27 E3        30.13R
SIERRA VISTA   CLEAR     49  13  23 W8        30.15R
DOUGLAS        CLEAR     44  12  27 N9        30.12S
SAFFORD        CLEAR     46  24  42 E5        30.08R
$$

AZZ532-300900-
SOUTHWEST ARIZONA

CITY           SKY/WX    TMP DP  RH WIND       PRES   REMARKS
YUMA           CLEAR     64  27  24 S5        30.01R
$$

CAZ041-043-047-048-061-525>527-560>570-300900-
SOUTHERN CALIFORNIA

CITY           SKY/WX    TMP DP  RH WIND       PRES   REMARKS
DOWNTOWN L.A.  CLEAR     65  43  44 CALM      30.05R
L.A. AIRPORT   CLEAR     63  45  51 SE9       30.05S
SAN DIEGO      CLEAR     65  35  33 N3        30.08R
BURBANK        CLEAR     64  28  25 SE3       30.06R
ONTARIO        CLEAR     61  29  29 N6        30.08R
RIVERSIDE      CLEAR     60  31  33 NE3       30.08S
PALM SPRINGS   CLEAR     68  20  16 N10       30.07R
EL CENTRO NAS  CLEAR     62  17  17 W8        30.03R
IMPERIAL       CLEAR     60  30  32 W6        30.01R
BLYTHE         CLEAR     66  16  14 W5        30.02R
NEEDLES        CLEAR     69  14  12 CALM      30.05R
$$

NVZ020-UTZ003-300900-
SOUTHERN NEVADA-UTAH

CITY           SKY/WX    TMP DP  RH WIND       PRES   REMARKS
LAS VEGAS      CLEAR     66  13  12 N10       30.12R
SALT LAKE CITY PTCLDY    42  29  59 SE7       30.19F
$$

NMZ009-TXZ055-300900-
NEW MEXICO-WEST TEXAS

CITY           SKY/WX    TMP DP  RH WIND       PRES   REMARKS
ALBUQUERQUE    CLOUDY    36  35  96 SW5       30.08S WCI  32
EL PASO        PTCLDY    46  32  58 CALM      30.07S
$$


........................KEY........................
SKY/WX - SKY CONDITION/WEATHER
TMP    - TEMPERATURE IN FAHRENHEIT
DP     - DEW POINT IN FAHRENHEIT
RH     - RELATIVE HUMIDITY IN PERCENT
WIND   - DIRECTION AND SPEED IN MILES PER HOUR (MPH)
VRB    - VARIABLE WIND DIRECTION
PRES   - MEAN SEA LEVEL PRESSURE IN INCHES OF MERCURY
         F - FALLING PRESSURE   R - RISING PRESSURE
         S - STEADY PRESSURE
VSB    - VISIBILITY IN MILES
HX     - HEAT INDEX IN FAHRENHEIT
WCI    - WIND CHILL INDEX IN FAHRENHEIT
TC     - TEMPERATURE IN CELSIUS WHICH IS ALSO KNOWN AS
         TEMPERATURE IN CENTIGRADE
AFB    - AIR FORCE BASE
         LUKE AFB IS LUKE AIR FORCE BASE
         DAVIS-MONTHAN IS DAVIS-MONTHAN AIR FORCE BASE
NAS    - NAVAL AIR STATION
         EL CENTRO NAS IS EL CENTRO NAVAL AIR STATION
N/A    - NOT AVAILABLE





USA.gov is the U.S. government's official web portal to all federal, state and local government web resources and services.